Wetterdaten: Donnerstag, 14.11.2013
Datum Zeit Temp. Auen Feucht Auen Luftdruck Regen Richtung Richtung Windben
14.11.2013 00:00 0,1 C 93 % 1028,4 hPa 0,0 mm N-NW 343 0,0 km/h (0 Bft)
14.11.2013 00:05 0,0 C 93 % 1028,3 hPa 0,0 mm N-NW 343 0,0 km/h (0 Bft)
14.11.2013 00:10 0,1 C 93 % 1028,3 hPa 0,0 mm N-NW 343 0,0 km/h (0 Bft)
14.11.2013 00:15 0,1 C 93 % 1028,2 hPa 0,0 mm N-NW 343 0,0 km/h (0 Bft)
14.11.2013 00:20 0,0 C 93 % 1028,1 hPa 0,0 mm N-NW 343 0,0 km/h (0 Bft)
14.11.2013 00:25 0,0 C 93 % 1028,1 hPa 0,0 mm N-NW 343 0,0 km/h (0 Bft)
14.11.2013 00:30 0,0 C 93 % 1028,0 hPa 0,0 mm N-NW 343 0,0 km/h (0 Bft)
14.11.2013 00:35 0,1 C 93 % 1028,0 hPa 0,0 mm N-NW 343 1,6 km/h (1 Bft)
14.11.2013 00:40 0,2 C 93 % 1027,9 hPa 0,0 mm N-NW 343 0,0 km/h (0 Bft)
14.11.2013 00:45 0,3 C 93 % 1027,8 hPa 0,0 mm N-NW 343 0,0 km/h (0 Bft)
14.11.2013 00:50 0,4 C 93 % 1027,7 hPa 0,0 mm N-NW 343 0,0 km/h (0 Bft)
14.11.2013 00:55 0,5 C 93 % 1027,6 hPa 0,0 mm N-NW 343 0,0 km/h (0 Bft)
14.11.2013 01:00 0,6 C 93 % 1027,5 hPa 0,0 mm N-NW 343 0,0 km/h (0 Bft)
14.11.2013 01:05 0,7 C 93 % 1027,4 hPa 0,0 mm N-NW 343 0,0 km/h (0 Bft)
14.11.2013 01:10 0,8 C 93 % 1027,3 hPa 0,0 mm N-NW 343 0,0 km/h (0 Bft)
14.11.2013 01:15 0,8 C 93 % 1027,2 hPa 0,0 mm N-NW 343 0,0 km/h (0 Bft)
14.11.2013 01:20 0,8 C 93 % 1027,2 hPa 0,0 mm N-NW 343 0,0 km/h (0 Bft)
14.11.2013 01:25 0,8 C 93 % 1027,1 hPa 0,0 mm N-NW 343 0,0 km/h (0 Bft)
14.11.2013 01:30 0,8 C 93 % 1027,0 hPa 0,0 mm N-NW 343 0,0 km/h (0 Bft)
14.11.2013 01:35 0,8 C 93 % 1027,0 hPa 0,0 mm N-NW 343 0,0 km/h (0 Bft)
14.11.2013 01:40 0,8 C 93 % 1027,0 hPa 0,0 mm N-NW 343 1,6 km/h (1 Bft)
14.11.2013 01:45 0,8 C 93 % 1026,9 hPa 0,0 mm S-SO 157 4,8 km/h (1 Bft)
14.11.2013 01:50 0,8 C 93 % 1026,8 hPa 0,0 mm SO 143 3,2 km/h (1 Bft)
14.11.2013 01:55 0,8 C 93 % 1026,8 hPa 0,0 mm O-SO 111 4,8 km/h (1 Bft)
14.11.2013 02:00 0,7 C 93 % 1026,7 hPa 0,0 mm O-SO 109 4,8 km/h (1 Bft)
14.11.2013 02:05 0,6 C 93 % 1026,5 hPa 0,0 mm O 83 3,2 km/h (1 Bft)
14.11.2013 02:10 0,4 C 93 % 1026,5 hPa 0,0 mm O 83 3,2 km/h (1 Bft)
14.11.2013 02:15 0,3 C 93 % 1026,4 hPa 0,0 mm O-NO 63 3,2 km/h (1 Bft)
14.11.2013 02:20 0,3 C 93 % 1026,4 hPa 0,0 mm O-NO 63 1,6 km/h (1 Bft)
14.11.2013 02:25 0,6 C 93 % 1026,2 hPa 0,0 mm O-SO 123 0,0 km/h (0 Bft)
14.11.2013 02:30 0,8 C 93 % 1026,2 hPa 0,0 mm O-SO 123 0,0 km/h (0 Bft)
14.11.2013 02:35 0,9 C 93 % 1026,0 hPa 0,0 mm O-SO 123 0,0 km/h (0 Bft)
14.11.2013 02:40 0,9 C 93 % 1026,0 hPa 0,0 mm O-SO 123 0,0 km/h (0 Bft)
14.11.2013 02:45 1,1 C 93 % 1025,9 hPa 0,0 mm O-SO 123 0,0 km/h (0 Bft)
14.11.2013 02:50 1,1 C 93 % 1025,8 hPa 0,0 mm O-SO 123 0,0 km/h (0 Bft)
14.11.2013 02:55 1,0 C 93 % 1025,7 hPa 0,0 mm O-SO 123 0,0 km/h (0 Bft)
14.11.2013 03:00 1,1 C 93 % 1025,6 hPa 0,0 mm O-SO 123 0,0 km/h (0 Bft)
14.11.2013 03:05 1,3 C 93 % 1025,5 hPa 0,0 mm O-SO 123 0,0 km/h (0 Bft)
14.11.2013 03:10 1,3 C 93 % 1025,4 hPa 0,0 mm O-SO 123 0,0 km/h (0 Bft)
14.11.2013 03:15 1,4 C 93 % 1025,3 hPa 0,0 mm O-SO 115 3,2 km/h (1 Bft)
14.11.2013 03:20 1,6 C 94 % 1025,2 hPa 0,0 mm O-SO 115 3,2 km/h (1 Bft)
14.11.2013 03:25 1,7 C 93 % 1025,0 hPa 0,0 mm SO 128 3,2 km/h (1 Bft)
14.11.2013 03:30 1,7 C 93 % 1025,0 hPa 0,0 mm SO 128 3,2 km/h (1 Bft)
14.11.2013 03:35 1,8 C 93 % 1024,9 hPa 0,0 mm O-SO 122 4,8 km/h (1 Bft)
14.11.2013 03:40 1,9 C 93 % 1024,7 hPa 0,0 mm O-SO 122 3,2 km/h (1 Bft)
14.11.2013 03:45 2,0 C 93 % 1024,7 hPa 0,0 mm O-SO 122 3,2 km/h (1 Bft)
14.11.2013 03:50 2,1 C 93 % 1024,7 hPa 0,0 mm O-SO 122 3,2 km/h (1 Bft)
14.11.2013 03:55 2,1 C 93 % 1024,5 hPa 0,0 mm O-SO 123 3,2 km/h (1 Bft)
14.11.2013 04:00 2,2 C 93 % 1024,5 hPa 0,0 mm O-SO 123 1,6 km/h (1 Bft)
14.11.2013 04:05 2,3 C 93 % 1024,4 hPa 0,0 mm O-SO 122 3,2 km/h (1 Bft)
14.11.2013 04:10 2,3 C 93 % 1024,3 hPa 0,0 mm O-SO 122 3,2 km/h (1 Bft)
14.11.2013 04:15 2,4 C 93 % 1024,2 hPa 0,0 mm O-SO 114 3,2 km/h (1 Bft)
14.11.2013 04:20 2,5 C 93 % 1024,1 hPa 0,0 mm O-SO 114 1,6 km/h (1 Bft)
14.11.2013 04:25 2,6 C 93 % 1024,0 hPa 0,0 mm O-SO 106 3,2 km/h (1 Bft)
14.11.2013 04:30 2,7 C 93 % 1023,9 hPa 0,0 mm O-SO 106 3,2 km/h (1 Bft)
14.11.2013 04:35 2,7 C 93 % 1023,9 hPa 0,0 mm O-NO 76 4,8 km/h (1 Bft)
14.11.2013 04:40 2,8 C 93 % 1023,8 hPa 0,0 mm O 96 4,8 km/h (1 Bft)
14.11.2013 04:45 2,8 C 93 % 1023,7 hPa 0,0 mm O 94 4,8 km/h (1 Bft)
14.11.2013 04:50 2,8 C 93 % 1023,6 hPa 0,0 mm O-NO 72 4,8 km/h (1 Bft)
14.11.2013 04:55 2,8 C 93 % 1023,5 hPa 0,0 mm O-NO 74 3,2 km/h (1 Bft)
14.11.2013 05:00 2,8 C 93 % 1023,4 hPa 0,0 mm O 79 4,8 km/h (1 Bft)
14.11.2013 05:05 2,8 C 93 % 1023,3 hPa 0,0 mm O-SO 107 4,8 km/h (1 Bft)
14.11.2013 05:10 2,9 C 93 % 1023,1 hPa 0,0 mm O-SO 114 4,8 km/h (1 Bft)
14.11.2013 05:15 2,9 C 93 % 1023,1 hPa 0,0 mm O 84 4,8 km/h (1 Bft)
14.11.2013 05:20 2,9 C 93 % 1022,9 hPa 0,0 mm O-SO 105 4,8 km/h (1 Bft)
14.11.2013 05:25 2,9 C 93 % 1022,9 hPa 0,0 mm O 99 4,8 km/h (1 Bft)
14.11.2013 05:30 2,9 C 93 % 1022,8 hPa 0,0 mm O 82 4,8 km/h (1 Bft)
14.11.2013 05:35 2,9 C 93 % 1022,7 hPa 0,0 mm O 82 3,2 km/h (1 Bft)
14.11.2013 05:40 2,9 C 93 % 1022,7 hPa 0,0 mm O-SO 107 3,2 km/h (1 Bft)
14.11.2013 05:45 3,0 C 93 % 1022,6 hPa 0,0 mm O 92 4,8 km/h (1 Bft)
14.11.2013 05:50 3,0 C 93 % 1022,5 hPa 0,0 mm O 101 4,8 km/h (1 Bft)
14.11.2013 05:55 3,0 C 93 % 1022,5 hPa 0,0 mm O-SO 111 3,2 km/h (1 Bft)
14.11.2013 06:00 3,0 C 93 % 1022,4 hPa 0,0 mm O 98 1,6 km/h (1 Bft)
14.11.2013 06:05 3,0 C 93 % 1022,4 hPa 0,0 mm O 98 1,6 km/h (1 Bft)
14.11.2013 06:10 3,0 C 93 % 1022,2 hPa 0,0 mm O 98 1,6 km/h (1 Bft)
14.11.2013 06:15 3,0 C 93 % 1022,2 hPa 0,0 mm O 98 3,2 km/h (1 Bft)
14.11.2013 06:20 3,1 C 93 % 1022,2 hPa 0,0 mm O 79 4,8 km/h (1 Bft)
14.11.2013 06:25 3,1 C 93 % 1022,2 hPa 0,0 mm O 79 1,6 km/h (1 Bft)
14.11.2013 06:30 3,1 C 93 % 1022,1 hPa 0,0 mm O 79 1,6 km/h (1 Bft)
14.11.2013 06:35 3,1 C 93 % 1022,1 hPa 0,0 mm O 79 1,6 km/h (1 Bft)
14.11.2013 06:40 3,1 C 93 % 1022,1 hPa 0,0 mm O 79 0,0 km/h (0 Bft)
14.11.2013 06:45 3,1 C 93 % 1022,1 hPa 0,0 mm O 79 1,6 km/h (1 Bft)
14.11.2013 06:50 3,1 C 93 % 1022,0 hPa 0,0 mm O 79 0,0 km/h (0 Bft)
14.11.2013 06:55 3,1 C 93 % 1022,0 hPa 0,0 mm O 79 0,0 km/h (0 Bft)
14.11.2013 07:00 3,1 C 93 % 1022,1 hPa 0,0 mm O 79 0,0 km/h (0 Bft)
14.11.2013 07:05 3,1 C 93 % 1022,0 hPa 0,0 mm O 79 0,0 km/h (0 Bft)
14.11.2013 07:10 3,1 C 93 % 1022,0 hPa 0,0 mm O 79 0,0 km/h (0 Bft)
14.11.2013 07:15 3,1 C 93 % 1021,8 hPa 0,0 mm O 79 0,0 km/h (0 Bft)
14.11.2013 07:20 3,2 C 92 % 1021,8 hPa 0,0 mm O 79 0,0 km/h (0 Bft)
14.11.2013 07:25 3,2 C 92 % 1021,9 hPa 0,0 mm O 79 0,0 km/h (0 Bft)
14.11.2013 07:30 3,2 C 92 % 1021,9 hPa 0,0 mm O 79 0,0 km/h (0 Bft)
14.11.2013 07:35 3,2 C 92 % 1021,8 hPa 0,0 mm O 79 0,0 km/h (0 Bft)
14.11.2013 07:40 3,3 C 92 % 1021,7 hPa 0,0 mm O 79 0,0 km/h (0 Bft)
14.11.2013 07:45 3,3 C 92 % 1021,9 hPa 0,0 mm O 79 0,0 km/h (0 Bft)
14.11.2013 07:50 3,3 C 92 % 1021,9 hPa 0,0 mm O 79 0,0 km/h (0 Bft)
14.11.2013 07:55 3,3 C 92 % 1021,8 hPa 0,0 mm O 79 0,0 km/h (0 Bft)
14.11.2013 08:00 3,3 C 92 % 1021,8 hPa 0,0 mm O 79 0,0 km/h (0 Bft)
14.11.2013 08:05 3,3 C 92 % 1021,7 hPa 0,0 mm O 79 1,6 km/h (1 Bft)
14.11.2013 08:10 3,4 C 92 % 1021,7 hPa 0,0 mm O 79 0,0 km/h (0 Bft)
14.11.2013 08:15 3,4 C 92 % 1021,8 hPa 0,0 mm O 79 1,6 km/h (1 Bft)
14.11.2013 08:20 3,4 C 92 % 1021,7 hPa 0,0 mm O 79 0,0 km/h (0 Bft)
14.11.2013 08:25 3,5 C 92 % 1021,7 hPa 0,0 mm O 79 0,0 km/h (0 Bft)
14.11.2013 08:30 3,6 C 92 % 1021,8 hPa 0,0 mm N-NW 343 3,2 km/h (1 Bft)
14.11.2013 08:35 3,6 C 92 % 1021,7 hPa 0,0 mm NW 321 3,2 km/h (1 Bft)
14.11.2013 08:40 3,6 C 92 % 1021,7 hPa 0,0 mm NW 321 0,0 km/h (0 Bft)
14.11.2013 08:45 3,6 C 92 % 1021,7 hPa 0,0 mm NW 321 1,6 km/h (1 Bft)
14.11.2013 08:50 3,7 C 92 % 1021,7 hPa 0,0 mm N 9 3,2 km/h (1 Bft)
14.11.2013 08:55 3,8 C 92 % 1021,7 hPa 0,0 mm NO 39 0,0 km/h (0 Bft)
14.11.2013 09:00 3,8 C 92 % 1021,7 hPa 0,0 mm O-NO 78 0,0 km/h (0 Bft)
14.11.2013 09:05 3,8 C 92 % 1021,7 hPa 0,0 mm O-SO 121 0,0 km/h (0 Bft)
14.11.2013 09:10 3,8 C 92 % 1021,7 hPa 0,0 mm O-SO 121 0,0 km/h (0 Bft)
14.11.2013 09:15 3,8 C 92 % 1021,7 hPa 0,0 mm O-SO 121 0,0 km/h (0 Bft)
14.11.2013 09:20 3,9 C 91 % 1021,7 hPa 0,0 mm O-SO 121 0,0 km/h (0 Bft)
14.11.2013 09:25 3,9 C 91 % 1021,7 hPa 0,0 mm W 268 3,2 km/h (1 Bft)
14.11.2013 09:30 4,0 C 91 % 1021,8 hPa 0,0 mm W 264 4,8 km/h (1 Bft)
14.11.2013 09:35 4,0 C 91 % 1021,8 hPa 0,0 mm W-NW 292 6,4 km/h (2 Bft)
14.11.2013 09:40 3,9 C 91 % 1021,8 hPa 0,0 mm W 263 4,8 km/h (1 Bft)
14.11.2013 09:45 3,9 C 91 % 1021,8 hPa 0,0 mm W 265 6,4 km/h (2 Bft)
14.11.2013 09:50 3,9 C 91 % 1021,8 hPa 0,0 mm W 270 6,4 km/h (2 Bft)
14.11.2013 09:55 3,9 C 91 % 1021,9 hPa 0,0 mm W 270 6,4 km/h (2 Bft)
14.11.2013 10:00 3,9 C 91 % 1021,9 hPa 0,0 mm W 267 6,4 km/h (2 Bft)
14.11.2013 10:05 3,9 C 91 % 1021,8 hPa 0,0 mm W 267 3,2 km/h (1 Bft)
14.11.2013 10:10 3,9 C 90 % 1021,8 hPa 0,0 mm W 267 1,6 km/h (1 Bft)
14.11.2013 10:15 4,1 C 90 % 1021,8 hPa 0,0 mm W 267 1,6 km/h (1 Bft)
14.11.2013 10:20 4,1 C 90 % 1021,8 hPa 0,0 mm W 269 8,0 km/h (2 Bft)
14.11.2013 10:25 4,1 C 90 % 1021,9 hPa 0,0 mm W 265 9,7 km/h (2 Bft)
14.11.2013 10:30 4,0 C 90 % 1021,8 hPa 0,0 mm W 259 12,9 km/h (3 Bft)
14.11.2013 10:35 3,9 C 90 % 1021,9 hPa 0,0 mm W-SW 248 11,3 km/h (2 Bft)
14.11.2013 10:40 3,9 C 90 % 1021,8 hPa 0,0 mm W 276 9,7 km/h (2 Bft)
14.11.2013 10:45 3,9 C 90 % 1021,8 hPa 0,0 mm W-SW 258 11,3 km/h (2 Bft)
14.11.2013 10:50 4,0 C 90 % 1021,8 hPa 0,0 mm W 274 8,0 km/h (2 Bft)
14.11.2013 10:55 4,1 C 90 % 1021,7 hPa 0,0 mm W 271 8,0 km/h (2 Bft)
14.11.2013 11:00 4,1 C 90 % 1021,8 hPa 0,0 mm W 262 6,4 km/h (2 Bft)
14.11.2013 11:05 4,1 C 90 % 1021,6 hPa 0,0 mm W-NW 294 9,7 km/h (2 Bft)
14.11.2013 11:10 4,0 C 90 % 1021,6 hPa 0,0 mm W-SW 252 9,7 km/h (2 Bft)
14.11.2013 11:15 4,0 C 90 % 1021,6 hPa 0,0 mm W 270 9,7 km/h (2 Bft)
14.11.2013 11:20 4,1 C 90 % 1021,6 hPa 0,0 mm W 273 11,3 km/h (2 Bft)
14.11.2013 11:25 4,0 C 90 % 1021,5 hPa 0,0 mm W 277 8,0 km/h (2 Bft)
14.11.2013 11:30 3,9 C 90 % 1021,5 hPa 0,0 mm W-SW 252 14,5 km/h (3 Bft)
14.11.2013 11:35 3,9 C 90 % 1021,4 hPa 0,0 mm W 273 12,9 km/h (3 Bft)
14.11.2013 11:40 3,9 C 90 % 1021,3 hPa 0,0 mm W 265 11,3 km/h (2 Bft)
14.11.2013 11:45 3,9 C 89 % 1021,3 hPa 0,0 mm W 268 16,1 km/h (3 Bft)
14.11.2013 11:50 4,0 C 89 % 1021,3 hPa 0,0 mm W 268 11,3 km/h (2 Bft)
14.11.2013 11:55 4,1 C 89 % 1021,3 hPa 0,0 mm W 261 9,7 km/h (2 Bft)
14.11.2013 12:00 4,1 C 89 % 1021,3 hPa 0,0 mm W-SW 257 12,9 km/h (3 Bft)
14.11.2013 12:05 4,0 C 89 % 1021,2 hPa 0,0 mm W 273 11,3 km/h (2 Bft)
14.11.2013 12:10 4,0 C 89 % 1021,0 hPa 0,0 mm W-SW 257 12,9 km/h (3 Bft)
14.11.2013 12:15 3,9 C 89 % 1021,0 hPa 0,0 mm W 278 8,0 km/h (2 Bft)
14.11.2013 12:20 3,9 C 89 % 1021,0 hPa 0,0 mm W 269 8,0 km/h (2 Bft)
14.11.2013 12:25 3,9 C 89 % 1021,1 hPa 0,0 mm W-NW 287 9,7 km/h (2 Bft)
14.11.2013 12:30 3,9 C 89 % 1021,1 hPa 0,0 mm NW 304 8,0 km/h (2 Bft)
14.11.2013 12:35 3,9 C 89 % 1021,1 hPa 0,0 mm W 281 9,7 km/h (2 Bft)
14.11.2013 12:40 3,9 C 89 % 1021,1 hPa 0,0 mm W 267 12,9 km/h (3 Bft)
14.11.2013 12:45 3,9 C 89 % 1021,1 hPa 0,0 mm W 271 12,9 km/h (3 Bft)
14.11.2013 12:50 3,8 C 89 % 1021,1 hPa 0,0 mm W 261 8,0 km/h (2 Bft)
14.11.2013 12:55 3,8 C 89 % 1021,1 hPa 0,0 mm W 275 12,9 km/h (3 Bft)
14.11.2013 13:00 3,8 C 89 % 1021,0 hPa 0,0 mm W 270 14,5 km/h (3 Bft)
14.11.2013 13:05 3,8 C 89 % 1021,0 hPa 0,0 mm W 261 11,3 km/h (2 Bft)
14.11.2013 13:10 3,8 C 89 % 1021,0 hPa 0,0 mm W 279 9,7 km/h (2 Bft)
14.11.2013 13:15 3,8 C 90 % 1021,0 hPa 0,0 mm W-NW 291 8,0 km/h (2 Bft)
14.11.2013 13:20 3,8 C 89 % 1021,0 hPa 0,0 mm W-NW 285 8,0 km/h (2 Bft)
14.11.2013 13:25 3,8 C 89 % 1020,9 hPa 0,0 mm W 280 9,7 km/h (2 Bft)
14.11.2013 13:30 3,9 C 89 % 1020,8 hPa 0,0 mm W 259 9,7 km/h (2 Bft)
14.11.2013 13:35 3,9 C 89 % 1020,8 hPa 0,0 mm W 267 14,5 km/h (3 Bft)
14.11.2013 13:40 4,0 C 89 % 1020,8 hPa 0,0 mm W 264 9,7 km/h (2 Bft)
14.11.2013 13:45 4,1 C 88 % 1020,8 hPa 0,0 mm W 267 11,3 km/h (2 Bft)
14.11.2013 13:50 4,2 C 88 % 1020,9 hPa 0,0 mm W 271 8,0 km/h (2 Bft)
14.11.2013 13:55 4,2 C 88 % 1020,9 hPa 0,0 mm W 263 9,7 km/h (2 Bft)
14.11.2013 14:00 4,2 C 88 % 1020,9 hPa 0,0 mm W 262 11,3 km/h (2 Bft)
14.11.2013 14:05 4,3 C 87 % 1020,9 hPa 0,0 mm W-NW 297 11,3 km/h (2 Bft)
14.11.2013 14:10 4,3 C 86 % 1020,9 hPa 0,0 mm W-SW 255 11,3 km/h (2 Bft)
14.11.2013 14:15 4,3 C 86 % 1021,0 hPa 0,0 mm W-NW 302 8,0 km/h (2 Bft)
14.11.2013 14:20 4,2 C 86 % 1021,0 hPa 0,0 mm W-NW 287 9,7 km/h (2 Bft)
14.11.2013 14:25 4,2 C 86 % 1021,1 hPa 0,0 mm W-SW 258 9,7 km/h (2 Bft)
14.11.2013 14:30 4,2 C 86 % 1021,1 hPa 0,0 mm W-NW 290 9,7 km/h (2 Bft)
14.11.2013 14:35 4,1 C 87 % 1021,1 hPa 0,0 mm W 271 4,8 km/h (1 Bft)
14.11.2013 14:40 4,1 C 87 % 1021,1 hPa 0,0 mm W-NW 288 8,0 km/h (2 Bft)
14.11.2013 14:45 4,1 C 88 % 1021,2 hPa 0,0 mm W 271 8,0 km/h (2 Bft)
14.11.2013 14:50 4,0 C 88 % 1021,2 hPa 0,0 mm W 271 11,3 km/h (2 Bft)
14.11.2013 14:55 3,9 C 88 % 1021,2 hPa 0,0 mm W 271 6,4 km/h (2 Bft)
14.11.2013 15:00 3,9 C 88 % 1021,2 hPa 0,0 mm W 267 9,7 km/h (2 Bft)
14.11.2013 15:05 3,9 C 88 % 1021,2 hPa 0,0 mm W 271 6,4 km/h (2 Bft)
14.11.2013 15:10 3,9 C 89 % 1021,2 hPa 0,0 mm W 274 6,4 km/h (2 Bft)
14.11.2013 15:15 3,8 C 89 % 1021,2 hPa 0,0 mm W 275 4,8 km/h (1 Bft)
14.11.2013 15:20 3,8 C 89 % 1021,3 hPa 0,0 mm W 273 4,8 km/h (1 Bft)
14.11.2013 15:25 3,8 C 89 % 1021,2 hPa 0,0 mm W 272 4,8 km/h (1 Bft)
14.11.2013 15:30 3,8 C 90 % 1021,2 hPa 0,0 mm W 278 4,8 km/h (1 Bft)
14.11.2013 15:35 3,7 C 90 % 1021,1 hPa 0,0 mm W 270 6,4 km/h (2 Bft)
14.11.2013 15:40 3,7 C 90 % 1021,0 hPa 0,0 mm W 273 4,8 km/h (1 Bft)
14.11.2013 15:45 3,7 C 90 % 1021,0 hPa 0,0 mm W 273 1,6 km/h (1 Bft)
14.11.2013 15:50 3,7 C 90 % 1021,0 hPa 0,0 mm W 273 3,2 km/h (1 Bft)
14.11.2013 15:55 3,7 C 91 % 1021,0 hPa 0,0 mm W 273 3,2 km/h (1 Bft)
14.11.2013 16:00 3,6 C 91 % 1021,0 hPa 0,0 mm W 273 0,0 km/h (0 Bft)
14.11.2013 16:05 3,7 C 91 % 1020,9 hPa 0,0 mm W 273 3,2 km/h (1 Bft)
14.11.2013 16:10 3,7 C 91 % 1021,0 hPa 0,0 mm W 273 3,2 km/h (1 Bft)
14.11.2013 16:15 3,6 C 91 % 1020,8 hPa 0,0 mm W 270 4,8 km/h (1 Bft)
14.11.2013 16:20 3,6 C 91 % 1020,9 hPa 0,0 mm W 269 4,8 km/h (1 Bft)
14.11.2013 16:25 3,6 C 91 % 1020,9 hPa 0,0 mm W 274 4,8 km/h (1 Bft)
14.11.2013 16:30 3,6 C 91 % 1020,9 hPa 0,0 mm W 267 4,8 km/h (1 Bft)
14.11.2013 16:35 3,6 C 91 % 1020,9 hPa 0,0 mm W 275 4,8 km/h (1 Bft)
14.11.2013 16:40 3,6 C 91 % 1020,9 hPa 0,0 mm W 274 3,2 km/h (1 Bft)
14.11.2013 16:45 3,7 C 91 % 1020,9 hPa 0,0 mm W 269 4,8 km/h (1 Bft)
14.11.2013 16:50 3,7 C 91 % 1020,8 hPa 0,0 mm W 273 8,0 km/h (2 Bft)
14.11.2013 16:55 3,7 C 91 % 1020,9 hPa 0,0 mm W 281 9,7 km/h (2 Bft)
14.11.2013 17:00 3,8 C 90 % 1020,8 hPa 0,0 mm W 279 11,3 km/h (2 Bft)
14.11.2013 17:05 3,8 C 90 % 1020,8 hPa 0,0 mm W 265 8,0 km/h (2 Bft)
14.11.2013 17:10 3,8 C 90 % 1020,8 hPa 0,0 mm W 267 12,9 km/h (3 Bft)
14.11.2013 17:15 3,9 C 90 % 1020,9 hPa 0,0 mm W-SW 254 11,3 km/h (2 Bft)
14.11.2013 17:20 3,9 C 90 % 1020,9 hPa 0,0 mm W 267 11,3 km/h (2 Bft)
14.11.2013 17:25 3,8 C 90 % 1021,0 hPa 0,0 mm W-NW 294 9,7 km/h (2 Bft)
14.11.2013 17:30 3,8 C 90 % 1021,0 hPa 0,0 mm W 271 9,7 km/h (2 Bft)
14.11.2013 17:35 3,8 C 90 % 1021,0 hPa 0,0 mm W 269 8,0 km/h (2 Bft)
14.11.2013 17:40 3,8 C 90 % 1021,0 hPa 0,0 mm W 271 8,0 km/h (2 Bft)
14.11.2013 17:45 3,8 C 90 % 1020,9 hPa 0,0 mm W 266 8,0 km/h (2 Bft)
14.11.2013 17:50 3,8 C 90 % 1021,0 hPa 0,0 mm W 268 8,0 km/h (2 Bft)
14.11.2013 17:55 3,7 C 90 % 1021,0 hPa 0,0 mm W-SW 258 4,8 km/h (1 Bft)
14.11.2013 18:00 3,7 C 90 % 1021,1 hPa 0,2 mm W 264 6,4 km/h (2 Bft)
14.11.2013 18:05 3,7 C 90 % 1021,1 hPa 0,0 mm W 270 4,8 km/h (1 Bft)
14.11.2013 18:10 3,6 C 91 % 1021,1 hPa 0,0 mm W 270 6,4 km/h (2 Bft)
14.11.2013 18:15 3,6 C 91 % 1021,2 hPa 0,0 mm W 280 6,4 km/h (2 Bft)
14.11.2013 18:20 3,6 C 91 % 1021,2 hPa 0,0 mm W 274 4,8 km/h (1 Bft)
14.11.2013 18:25 3,6 C 91 % 1021,2 hPa 0,0 mm W 275 4,8 km/h (1 Bft)
14.11.2013 18:30 3,6 C 91 % 1021,2 hPa 0,0 mm W 269 6,4 km/h (2 Bft)
14.11.2013 18:35 3,6 C 91 % 1021,2 hPa 0,0 mm W 272 4,8 km/h (1 Bft)
14.11.2013 18:40 3,6 C 91 % 1021,2 hPa 0,0 mm W 279 4,8 km/h (1 Bft)
14.11.2013 18:45 3,6 C 91 % 1021,2 hPa 0,0 mm W 278 8,0 km/h (2 Bft)
14.11.2013 18:50 3,6 C 91 % 1021,3 hPa 0,0 mm W 268 8,0 km/h (2 Bft)
14.11.2013 18:55 3,6 C 91 % 1021,3 hPa 0,0 mm W-SW 246 9,7 km/h (2 Bft)
14.11.2013 19:00 3,6 C 91 % 1021,4 hPa 0,0 mm W-NW 288 8,0 km/h (2 Bft)
14.11.2013 19:05 3,6 C 91 % 1021,4 hPa 0,0 mm W 268 6,4 km/h (2 Bft)
14.11.2013 19:10 3,5 C 91 % 1021,4 hPa 0,0 mm W 271 8,0 km/h (2 Bft)
14.11.2013 19:15 3,5 C 91 % 1021,5 hPa 0,0 mm W 273 6,4 km/h (2 Bft)
14.11.2013 19:20 3,4 C 91 % 1021,5 hPa 0,0 mm W 269 4,8 km/h (1 Bft)
14.11.2013 19:25 3,4 C 92 % 1021,5 hPa 0,0 mm W 264 8,0 km/h (2 Bft)
14.11.2013 19:30 3,4 C 92 % 1021,5 hPa 0,0 mm W-NW 288 4,8 km/h (1 Bft)
14.11.2013 19:35 3,3 C 92 % 1021,4 hPa 0,2 mm W 275 4,8 km/h (1 Bft)
14.11.2013 19:40 3,3 C 92 % 1021,5 hPa 0,0 mm W 269 6,4 km/h (2 Bft)
14.11.2013 19:45 3,3 C 92 % 1021,5 hPa 0,0 mm W 271 4,8 km/h (1 Bft)
14.11.2013 19:50 3,3 C 92 % 1021,5 hPa 0,0 mm W 277 6,4 km/h (2 Bft)
14.11.2013 19:55 3,2 C 92 % 1021,5 hPa 0,2 mm W 277 1,6 km/h (1 Bft)
14.11.2013 20:00 3,2 C 92 % 1021,5 hPa 0,0 mm W 277 4,8 km/h (1 Bft)
14.11.2013 20:05 3,1 C 92 % 1021,4 hPa 0,0 mm W 272 4,8 km/h (1 Bft)
14.11.2013 20:10 3,1 C 92 % 1021,4 hPa 0,0 mm W 272 3,2 km/h (1 Bft)
14.11.2013 20:15 3,1 C 92 % 1021,5 hPa 0,0 mm W 270 3,2 km/h (1 Bft)
14.11.2013 20:20 3,0 C 92 % 1021,5 hPa 0,0 mm W 270 1,6 km/h (1 Bft)
14.11.2013 20:25 3,0 C 92 % 1021,5 hPa 0,0 mm W 270 3,2 km/h (1 Bft)
14.11.2013 20:30 3,0 C 92 % 1021,5 hPa 0,2 mm W 270 1,6 km/h (1 Bft)
14.11.2013 20:35 3,0 C 93 % 1021,5 hPa 0,0 mm W 270 1,6 km/h (1 Bft)
14.11.2013 20:40 2,9 C 93 % 1021,5 hPa 0,0 mm N 0 0,0 km/h (0 Bft)
14.11.2013 20:45 2,9 C 93 % 1021,5 hPa 0,0 mm N 0 0,0 km/h (0 Bft)
14.11.2013 20:50 2,9 C 93 % 1021,6 hPa 0,2 mm N 0 0,0 km/h (0 Bft)
14.11.2013 20:55 2,9 C 93 % 1021,6 hPa 0,0 mm W 270 1,6 km/h (1 Bft)
14.11.2013 21:00 2,9 C 93 % 1021,6 hPa 0,0 mm N 0 0,0 km/h (0 Bft)
14.11.2013 21:05 2,9 C 93 % 1021,6 hPa 0,0 mm W 270 1,6 km/h (1 Bft)
14.11.2013 21:10 2,8 C 93 % 1021,6 hPa 0,0 mm N 0 0,0 km/h (0 Bft)
14.11.2013 21:15 2,8 C 93 % 1021,6 hPa 0,0 mm N 0 0,0 km/h (0 Bft)
14.11.2013 21:20 2,8 C 93 % 1021,7 hPa 0,0 mm N 0 0,0 km/h (0 Bft)
14.11.2013 21:25 2,8 C 93 % 1021,6 hPa 0,2 mm N 0 0,0 km/h (0 Bft)
14.11.2013 21:30 2,8 C 93 % 1021,6 hPa 0,0 mm N 0 0,0 km/h (0 Bft)
14.11.2013 21:35 2,8 C 93 % 1021,6 hPa 0,0 mm W 270 1,6 km/h (1 Bft)
14.11.2013 21:40 2,8 C 93 % 1021,7 hPa 0,0 mm W 270 1,6 km/h (1 Bft)
14.11.2013 21:45 2,8 C 93 % 1021,6 hPa 0,0 mm W 270 1,6 km/h (1 Bft)
14.11.2013 21:50 2,8 C 93 % 1021,6 hPa 0,0 mm W 270 1,6 km/h (1 Bft)
14.11.2013 21:55 2,9 C 93 % 1021,7 hPa 0,0 mm W 270 1,6 km/h (1 Bft)
14.11.2013 22:00 2,9 C 93 % 1021,7 hPa 0,0 mm W 272 1,6 km/h (1 Bft)
14.11.2013 22:05 2,9 C 93 % 1021,6 hPa 0,2 mm W 272 3,2 km/h (1 Bft)
14.11.2013 22:10 2,9 C 93 % 1021,6 hPa 0,0 mm W 279 8,0 km/h (2 Bft)
14.11.2013 22:15 2,8 C 93 % 1021,5 hPa 0,0 mm W 267 4,8 km/h (1 Bft)
14.11.2013 22:20 2,8 C 93 % 1021,6 hPa 0,0 mm W 267 3,2 km/h (1 Bft)
14.11.2013 22:25 2,8 C 93 % 1021,6 hPa 0,0 mm W 267 1,6 km/h (1 Bft)
14.11.2013 22:30 2,8 C 93 % 1021,5 hPa 0,0 mm W 269 3,2 km/h (1 Bft)
14.11.2013 22:35 2,8 C 93 % 1021,6 hPa 0,0 mm W 269 1,6 km/h (1 Bft)
14.11.2013 22:40 2,8 C 93 % 1021,5 hPa 0,0 mm W 269 0,0 km/h (0 Bft)
14.11.2013 22:45 2,8 C 93 % 1021,5 hPa 0,0 mm W 269 0,0 km/h (0 Bft)
14.11.2013 22:50 2,7 C 93 % 1021,5 hPa 0,0 mm W 269 0,0 km/h (0 Bft)
14.11.2013 22:55 2,7 C 93 % 1021,5 hPa 0,0 mm W 269 0,0 km/h (0 Bft)
14.11.2013 23:00 2,7 C 93 % 1021,5 hPa 0,0 mm W 269 0,0 km/h (0 Bft)
14.11.2013 23:05 2,8 C 93 % 1021,6 hPa 0,2 mm W 271 4,8 km/h (1 Bft)
14.11.2013 23:10 2,7 C 93 % 1021,5 hPa 0,0 mm W 267 6,4 km/h (2 Bft)
14.11.2013 23:15 2,6 C 93 % 1021,6 hPa 0,0 mm W 273 4,8 km/h (1 Bft)
14.11.2013 23:20 2,5 C 93 % 1021,5 hPa 0,0 mm W 267 4,8 km/h (1 Bft)
14.11.2013 23:25 2,4 C 93 % 1021,4 hPa 0,0 mm W 275 4,8 km/h (1 Bft)
14.11.2013 23:30 2,3 C 93 % 1021,4 hPa 0,2 mm W 275 3,2 km/h (1 Bft)
14.11.2013 23:35 2,3 C 93 % 1021,4 hPa 0,0 mm W-NW 289 6,4 km/h (2 Bft)
14.11.2013 23:40 2,3 C 93 % 1021,4 hPa 0,0 mm W 273 4,8 km/h (1 Bft)
14.11.2013 23:45 2,3 C 93 % 1021,5 hPa 0,0 mm W 273 3,2 km/h (1 Bft)
14.11.2013 23:50 2,3 C 93 % 1021,5 hPa 0,0 mm W 273 3,2 km/h (1 Bft)
14.11.2013 23:55 2,3 C 93 % 1021,6 hPa 0,0 mm W 273 3,2 km/h (1 Bft)
_ Min-Zeit 00:25 14:10 13:30 - - - 00:00
Minimum _ -0,1 C 86 % 1020,8 hPa - - - 0,0 km/h (0 Bft)
_ Max-Zeit 14:00 03:20 00:00 18:00 - - 11:45
Maximum _ 4,3 C 94 % 1028,4 hPa 0,2 mm - - 16,1 km/h
W (3 Bft)
Durchschnitt _ 3,0 C 91 % 1022,5 hPa #1,8 mm W - 4,5 km/h (1 Bft)